Regional Weather Roundup
Issued by NWS

Home | Current Version | Previous Version | Text Only | Print | Product List | Glossary On
Versions: 1 2 3 4 5 6 7 8 9 10 11 12 13 14 15 16 17 18 19 20 21 22 23 24 25 26 27 28 29 30 31 32 33 34 35 36 37 38 39 40 41 42 43 44 45 46 47 48 49 50
000
ASUS43 KOAX 182202
RWRNE

WEATHER ROUNDUP FOR NEBRASKA
NATIONAL WEATHER SERVICE OMAHA NE
500 PM CDT FRI AUG 18 2017

NOTES: SATELLITE DATA IS BEING USED TO AUGMENT CLOUD COVER ABOVE
       12000 FEET.
       "FAIR" INDICATES FEW OR NO CLOUDS BELOW 12,000 FEET WITH NO
       SIGNIFICANT WEATHER AND/OR OBSTRUCTIONS TO VISIBILITY.


NEZ001>004-019>022-054>056-182300-
NEBRASKA PANHANDLE

CITY           SKY/WX    TMP DP  RH WIND       PRES   REMARKS
SCOTTSBLUFF    SUNNY     89  36  15 N7        30.06F
ALLIANCE       SUNNY     85  42  22 W9        30.05F
CHADRON        SUNNY     89  39  17 NW10      30.00F
GORDON         FAIR      85  46  25 N7        30.03S
KIMBALL        SUNNY     85  46  26 S10       30.13F
SIDNEY         SUNNY     86  39  19 VRB6      30.11F
$$

NEZ057>060-069>072-079>082-182300-
SOUTHWEST NEBRASKA

CITY           SKY/WX    TMP DP  RH WIND       PRES   REMARKS
NORTH PLATTE   SUNNY     88  50  27 W7        30.00S
IMPERIAL       SUNNY     87  41  19 CALM      30.05F
LEXINGTON      SUNNY     86  56  34 SW3       29.99S
MCCOOK         SUNNY     89  53  29 VRB5      30.00F
OGALLALA       SUNNY     87  45  23 W3        30.04S
$$

NEZ005>010-023>029-035>040-094-182300-
NORTH CENTRAL NEBRASKA

CITY           SKY/WX    TMP DP  RH WIND       PRES   REMARKS
VALENTINE      SUNNY     87  47  24 N13       29.99S
AINSWORTH      SUNNY     81  57  44 N9        29.99S
BROKEN BOW     SUNNY     91  47  21 NW13      29.96F
O`NEILL        SUNNY     81  62  50 N10       29.95F
ORD            SUNNY     83  56  39 W6        29.92F
THEDFORD       MOSUNNY   89  50  26 N10G17    30.01S
$$

NEZ041-046>049-061>064-073>077-083>087-182300-
SOUTH CENTRAL NEBRASKA

CITY           SKY/WX    TMP DP  RH WIND       PRES   REMARKS
GRAND ISLAND   SUNNY     87  60  40 NW6       29.95F
AURORA         SUNNY     84  62  47 CALM      29.95S
HASTINGS       SUNNY     85  62  46 CALM      29.97F
HEBRON         SUNNY     87  65  48 NW5       29.94S
HOLDREGE       SUNNY     83  59  44 CALM      29.99S
KEARNEY        SUNNY     85  61  44 S3        29.97F
YORK           SUNNY     82  68  61 CALM      29.94F
$$

NEZ011>018-030>034-042>045-182300-
NORTHEAST NEBRASKA

CITY           SKY/WX    TMP DP  RH WIND       PRES   REMARKS
NORFOLK        SUNNY     84  65  52 W6        29.89F
ALBION         SUNNY     86  64  47 CALM      29.92F
BLAIR          SUNNY     83  67  57 W7        29.90F
COLUMBUS       SUNNY     83  67  58 W6        29.92F
FREMONT        SUNNY     83  65  54 W6        29.91S
TEKAMAH        SUNNY     83  64  52 SW3       29.88F
WAYNE          MOSUNNY   83  68  60 NW5       29.90S
$$

NEZ050>053-065>068-078-088>093-182300-
SOUTHEAST NEBRASKA

CITY           SKY/WX    TMP DP  RH WIND       PRES   REMARKS
LINCOLN        SUNNY     86  63  45 MISG      29.92F
OMAHA EPPLEY   MOSUNNY   87  62  43 NW8       29.88F
BEATRICE       SUNNY     87  66  49 NW5       29.92F
FALLS CITY     CLOUDY    85  68  56 N5        29.90S
NEBRASKA CITY  SUNNY     85  64  50 NW5       29.91F
PLATTSMOUTH    SUNNY     83  63  49 SW6       29.91S
$$

NEZ044-045-051>053-067-182300-
OMAHA AREA

CITY           SKY/WX    TMP DP  RH WIND       PRES   REMARKS
OMAHA EPPLEY   MOSUNNY   87  62  43 NW8       29.88F
BLAIR          SUNNY     83  67  57 W7        29.90F
FREMONT        SUNNY     83  65  54 W6        29.91S
MILLARD        SUNNY     85  66  52 W8        29.90S
OFFUTT AFB     SUNNY     87  61  42 SW6       29.89S
PLATTSMOUTH    SUNNY     83  63  49 SW6       29.91S
WAHOO          FAIR      83  65  55 W5        29.91S
$$




USA.gov is the U.S. government's official web portal to all federal, state and local government web resources and services.